This is the latest recevied weather packets stored in our database for station/object KE0PRS. If no packets are shown the sender has not sent any weather packets the latest 10 day(s).
| Time | Temp. | Humidity | Pressure | Rain* | Wind** | Luminosity | Snow |
|---|---|---|---|---|---|---|---|
| 1787362772 | 31.67° C | 44% | 1016.9 hPa | 0 mm | - | 0 W/m² | - |
| 1787362467 | 31.67° C | 44% | 1017 hPa | 0 mm | - | 1 W/m² | - |
| 1787362162 | 32.22° C | 43% | 1016.9 hPa | 0 mm | - | 1 W/m² | - |
| 1787361861 | 32.78° C | 42% | 1016.9 hPa | 0 mm | - | 2 W/m² | - |
| 1787361556 | 32.78° C | 42% | 1016.9 hPa | 0 mm | - | 4 W/m² | - |
| 1787361255 | 32.78° C | 41% | 1016.8 hPa | 0 mm | - | 7 W/m² | - |
| 1787360952 | 33.33° C | 40% | 1016.8 hPa | 0 mm | - | 12 W/m² | - |
| 1787360652 | 33.89° C | 39% | 1016.9 hPa | 0 mm | - | 18 W/m² | - |
| 1787360351 | 33.89° C | 38% | 1016.8 hPa | 0 mm | - | 20 W/m² | - |
| 1787360046 | 34.44° C | 38% | 1017 hPa | 0 mm | - | 23 W/m² | - |
| 1787359742 | 34.44° C | 37% | 1016.9 hPa | 0 mm | - | 26 W/m² | - |
| 1787359439 | 34.44° C | 37% | 1016.8 hPa | 0 mm | - | 30 W/m² | - |
| 1787359138 | 35° C | 37% | 1016.7 hPa | 0 mm | - | 39 W/m² | - |
| 1787358833 | 35° C | 37% | 1016.9 hPa | 0 mm | - | 48 W/m² | - |
| 1787358532 | 35° C | 36% | 1016.7 hPa | 0 mm | - | 56 W/m² | - |
| 1787358227 | 35.56° C | 36% | 1016.6 hPa | 0 mm | - | 65 W/m² | - |
| 1787357923 | 35.56° C | 36% | 1016.8 hPa | 0 mm | - | 75 W/m² | - |
| 1787357618 | 35.56° C | 36% | 1016.6 hPa | 0 mm | - | 84 W/m² | - |
| 1787357314 | 35.56° C | 36% | 1016.7 hPa | 0 mm | - | 94 W/m² | - |
| 1787357009 | 35.56° C | 36% | 1016.6 hPa | 0 mm | - | 105 W/m² | - |
* Rain latest hour (hover to see other rain measurements)
** Current wind speed in m/s (hover to see current wind gust speed)